TimeMST,TemperatureF,Dew PointF,Humidity,Sea Level PressureIn,VisibilityMPH,Wind Direction,Wind SpeedMPH,Gust SpeedMPH,PrecipitationIn,Events,Conditions,WindDirDegrees,DateUTC
12:28 AM,42.1,39.9,92,29.99,10.0,WSW,13.8,-,0.01,Rain,Light Rain,250,2014-02-15 07:28:00
12:42 AM,41.0,39.9,96,29.99,9.0,WSW,12.7,19.6,0.01,Rain,Light Rain,250,2014-02-15 07:42:00
12:53 AM,41.0,39.9,96,29.99,8.0,WSW,12.7,-,0.02,Rain,Light Rain,250,2014-02-15 07:53:00
1:10 AM,41.0,39.9,96,29.99,10.0,WSW,9.2,-,0.00,Rain,Light Rain,250,2014-02-15 08:10:00
1:53 AM,39.9,39.0,97,29.98,10.0,West,11.5,-,0.02,Rain,Light Rain,260,2014-02-15 08:53:00
2:53 AM,39.9,39.0,97,29.99,7.0,SW,6.9,-,0.03,Rain,Light Rain,220,2014-02-15 09:53:00
3:09 AM,39.9,39.0,97,30.00,10.0,WSW,9.2,-,0.00,Rain,Light Rain,240,2014-02-15 10:09:00
3:27 AM,39.0,37.9,96,30.00,8.0,WSW,9.2,-,0.01,Rain,Light Rain,240,2014-02-15 10:27:00
3:53 AM,39.0,37.9,96,30.00,7.0,WSW,10.4,-,0.03,Rain,Light Rain,250,2014-02-15 10:53:00
4:53 AM,37.9,37.0,97,29.99,10.0,SW,8.1,-,0.02,Rain,Light Rain,220,2014-02-15 11:53:00
5:53 AM,37.9,37.0,97,29.99,10.0,SW,11.5,-,0.01,Rain,Light Rain,220,2014-02-15 12:53:00
6:53 AM,37.9,37.0,97,29.99,10.0,WSW,4.6,-,0.01,Rain,Light Rain,250,2014-02-15 13:53:00
7:53 AM,37.9,37.0,97,30.00,10.0,NW,3.5,-,0.00,,Overcast,320,2014-02-15 14:53:00
8:40 AM,37.9,37.0,97,30.01,10.0,Calm,Calm,-,N/A,,Overcast,0,2014-02-15 15:40:00
8:50 AM,39.2,37.4,93,30.02,10.0,Calm,Calm,-,N/A,,Mostly Cloudy,0,2014-02-15 15:50:00
8:53 AM,39.0,37.9,96,30.01,10.0,East,4.6,-,N/A,,Mostly Cloudy,80,2014-02-15 15:53:00
9:14 AM,39.9,37.9,93,30.01,10.0,East,4.6,-,N/A,,Scattered Clouds,90,2014-02-15 16:14:00
9:30 AM,39.9,37.9,93,30.00,10.0,East,5.8,-,N/A,,Mostly Cloudy,90,2014-02-15 16:30:00
9:48 AM,41.0,39.2,93,30.00,10.0,East,6.9,-,N/A,,Scattered Clouds,80,2014-02-15 16:48:00
9:53 AM,41.0,39.0,93,29.99,10.0,ENE,6.9,-,N/A,,Partly Cloudy,70,2014-02-15 16:53:00
10:53 AM,44.1,39.9,85,29.99,10.0,NE,6.9,-,N/A,,Clear,50,2014-02-15 17:53:00
11:53 AM,46.9,42.1,83,29.95,10.0,NE,10.4,-,N/A,,Partly Cloudy,50,2014-02-15 18:53:00
12:53 PM,48.9,42.1,77,29.92,10.0,NE,11.5,-,N/A,,Partly Cloudy,40,2014-02-15 19:53:00
1:53 PM,52.0,41.0,66,29.89,10.0,NNE,6.9,-,N/A,,Scattered Clouds,20,2014-02-15 20:53:00
2:53 PM,50.0,42.1,74,29.91,10.0,North,8.1,-,N/A,,Overcast,360,2014-02-15 21:53:00
3:53 PM,50.0,42.1,74,29.88,10.0,ENE,11.5,-,N/A,,Clear,60,2014-02-15 22:53:00
4:53 PM,48.0,43.0,83,29.86,10.0,ENE,9.2,-,N/A,,Overcast,70,2014-02-15 23:53:00
5:53 PM,48.9,41.0,74,29.85,10.0,NE,8.1,-,N/A,,Overcast,40,2014-02-16 00:53:00
6:53 PM,48.0,39.0,71,29.82,10.0,SSE,11.5,-,N/A,,Overcast,150,2014-02-16 01:53:00
7:53 PM,50.0,37.0,61,29.78,10.0,SSE,6.9,-,N/A,,Overcast,160,2014-02-16 02:53:00
8:53 PM,54.0,30.9,41,29.75,10.0,SSW,16.1,26.5,N/A,,Overcast,200,2014-02-16 03:53:00
9:53 PM,53.1,32.0,45,29.73,10.0,SSW,21.9,-,N/A,,Overcast,200,2014-02-16 04:53:00
10:53 PM,54.0,30.9,41,29.73,10.0,SSW,18.4,-,N/A,,Mostly Cloudy,210,2014-02-16 05:53:00
11:53 PM,52.0,32.0,47,29.71,10.0,SSW,18.4,-,N/A,,Overcast,210,2014-02-16 06:53:00